ELY372 LPPT-LLBG

Flight info

Callsign ELY372
Flight time N/A
Altitude 34000
Route LPPT/20 N0450F340 ORVE1S ORVED DCT RODAP DCT UREDI DCT DIPOL DCT RBO DCT PINAR DCT SEGRE DCT BRITO DCT PISUS DCT PONEN DCT SEROX DCT VILAR/N0446F350 DCT KARES/N0446F340 DCT BISES DCT BCN/N0446F350 DCT DIPES/N0445F360 N725 OSPOK/N0446F350 DCT NOLVI DCT ORKUM/N0444F360 DCT ELSAG DCT ALG/N0445F350 DCT QUENN DCT LODPA/N0442F370 DCT CRN DCT ADREN DCT TOMGI DCT RUTOM DCT TRL DCT SOTIX DCT VAXOS UN134 VANZA DCT PIKOG L609 ZUKKO GODED2 LLBG/12
Aircraft B738/M-VGDW/C

Departure

Time 2026-05-04 07:43
Airport Lisbon Humberto Delgado Airport (LPPT)

Arrival

Time N/A
Airport Ben Gurion International Airport (LLBG)
Time Latitude Longitude Altitude Speed Heading
2026-05-04 07:22 38.77206 -9.13145 346 ft 0 kts 75°
2026-05-04 07:28 38.77202 -9.13162 357 ft 4 kts 75°
2026-05-04 07:28 38.77196 -9.13195 355 ft 4 kts 79°
2026-05-04 07:28 38.77194 -9.13217 353 ft 2 kts 121°
2026-05-04 07:29 38.77206 -9.13227 356 ft 3 kts 167°
2026-05-04 07:29 38.77198 -9.13225 351 ft 4 kts 168°
2026-05-04 07:29 38.77180 -9.13220 350 ft 1 kts 168°
2026-05-04 07:29 38.77172 -9.13218 352 ft 0 kts 168°
2026-05-04 07:31 38.77125 -9.13206 351 ft 13 kts 169°
2026-05-04 07:33 38.76701 -9.13424 349 ft 11 kts 216°
2026-05-04 07:33 38.76652 -9.13493 349 ft 11 kts 258°
2026-05-04 07:33 38.76638 -9.13586 349 ft 11 kts 258°
2026-05-04 07:33 38.76623 -9.13677 346 ft 10 kts 258°
2026-05-04 07:34 38.76606 -9.13779 346 ft 14 kts 259°
2026-05-04 07:34 38.76578 -9.13944 349 ft 25 kts 257°
2026-05-04 07:34 38.76561 -9.14139 348 ft 20 kts 285°
2026-05-04 07:34 38.76654 -9.14153 346 ft 15 kts 23°
2026-05-04 07:35 38.76749 -9.14102 353 ft 14 kts 22°
2026-05-04 07:35 38.76840 -9.14053 350 ft 15 kts 22°
2026-05-04 07:35 38.76959 -9.13990 349 ft 22 kts 22°
2026-05-04 07:35 38.77125 -9.13901 346 ft 28 kts 21°
2026-05-04 07:36 38.77302 -9.13807 346 ft 27 kts 22°
2026-05-04 07:36 38.77464 -9.13719 351 ft 25 kts 23°
2026-05-04 07:38 38.78436 -9.13220 348 ft 14 kts 357°
2026-05-04 07:38 38.78510 -9.13247 355 ft 8 kts 324°
2026-05-04 07:38 38.78512 -9.13249 354 ft 0 kts 321°
2026-05-04 07:39 38.78520 -9.13257 352 ft 8 kts 316°
2026-05-04 07:39 38.78606 -9.13374 349 ft 28 kts 340°
2026-05-04 07:40 38.78820 -9.13431 346 ft 27 kts 348°
2026-05-04 07:40 38.78995 -9.13378 348 ft 26 kts 22°
2026-05-04 07:40 38.79154 -9.13293 352 ft 24 kts 22°
2026-05-04 07:40 38.79302 -9.13214 355 ft 23 kts 22°
2026-05-04 07:41 38.79448 -9.13136 351 ft 22 kts 23°
2026-05-04 07:41 38.79586 -9.13061 353 ft 21 kts 22°
2026-05-04 07:41 38.79722 -9.12989 348 ft 21 kts 22°
2026-05-04 07:41 38.79762 -9.12872 350 ft 16 kts 111°
2026-05-04 07:42 38.79697 -9.12765 352 ft 17 kts 171°
2026-05-04 07:42 38.79556 -9.12833 351 ft 41 kts 202°
2026-05-04 07:42 38.79054 -9.13101 353 ft 114 kts 202°
2026-05-04 07:42 38.78131 -9.13599 384 ft 167 kts 204°
2026-05-04 07:43 38.76971 -9.14180 825 ft 190 kts 204°
2026-05-04 07:43 38.75717 -9.14870 1635 ft 196 kts 206°
2026-05-04 07:43 38.74458 -9.15582 2456 ft 204 kts 207°
2026-05-04 07:43 38.73095 -9.16336 2824 ft 225 kts 205°
2026-05-04 07:44 38.71577 -9.17143 3157 ft 246 kts 205°
2026-05-04 07:44 38.69921 -9.18018 3483 ft 266 kts 204°
2026-05-04 07:44 38.68192 -9.18927 4286 ft 270 kts 203°
2026-05-04 07:44 38.66366 -9.19274 5168 ft 275 kts 172°
2026-05-04 07:45 38.64627 -9.18288 6064 ft 278 kts 139°
2026-05-04 07:45 38.63453 -9.16337 6876 ft 280 kts 113°
2026-05-04 07:45 38.62973 -9.13916 7592 ft 285 kts 92°
2026-05-04 07:45 38.62984 -9.11357 8312 ft 291 kts 86°
2026-05-04 07:46 38.63102 -9.08754 9065 ft 296 kts 85°
2026-05-04 07:46 38.63240 -9.06104 9818 ft 301 kts 85°
2026-05-04 07:46 38.63375 -9.03396 10450 ft 310 kts 85°
2026-05-04 07:46 38.63509 -9.00527 10650 ft 335 kts 85°
2026-05-04 07:47 38.63642 -8.97454 10856 ft 357 kts 86°
2026-05-04 07:47 38.63773 -8.94226 11348 ft 368 kts 86°
2026-05-04 07:47 38.63898 -8.90935 12004 ft 373 kts 86°
2026-05-04 07:49 38.64765 -8.66784 16646 ft 399 kts 86°
2026-05-04 07:49 38.64888 -8.63224 17284 ft 402 kts 86°
2026-05-04 07:49 38.65012 -8.59637 17918 ft 405 kts 86°
2026-05-04 07:50 38.65264 -8.56038 18506 ft 407 kts 75°
2026-05-04 07:50 38.66359 -8.52715 18981 ft 407 kts 54°
2026-05-04 07:50 38.68183 -8.50035 19454 ft 405 kts 39°
2026-05-04 07:50 38.70139 -8.47402 19908 ft 415 kts 52°
2026-05-04 07:51 38.71667 -8.44233 20392 ft 421 kts 58°
2026-05-04 07:51 38.73099 -8.40933 20866 ft 426 kts 58°
2026-05-04 07:51 38.74529 -8.37582 21322 ft 431 kts 58°
2026-05-04 07:51 38.75988 -8.34202 21782 ft 435 kts 58°
2026-05-04 07:52 38.77478 -8.30801 22232 ft 440 kts 58°
2026-05-04 07:52 38.78993 -8.27384 22682 ft 444 kts 57°
2026-05-04 07:52 38.80533 -8.23931 23129 ft 448 kts 57°
2026-05-04 07:52 38.82089 -8.20448 23560 ft 452 kts 57°
2026-05-04 07:53 38.83658 -8.16932 23930 ft 456 kts 57°
2026-05-04 07:54 38.98093 -7.95671 26406 ft 459 kts 24°
2026-05-04 07:55 39.00873 -7.93630 26741 ft 462 kts 24°
2026-05-04 07:55 39.03675 -7.91573 27073 ft 465 kts 24°
2026-05-04 07:55 39.06483 -7.89489 27419 ft 467 kts 25°
2026-05-04 07:55 39.09301 -7.87371 27746 ft 470 kts 25°
2026-05-04 07:56 39.12131 -7.85227 28051 ft 473 kts 25°
2026-05-04 07:56 39.14970 -7.83064 28356 ft 476 kts 25°
2026-05-04 07:56 39.17826 -7.80883 28643 ft 479 kts 25°
2026-05-04 07:56 39.20696 -7.78689 28930 ft 481 kts 25°
2026-05-04 07:57 39.23590 -7.76477 29221 ft 484 kts 25°
2026-05-04 07:57 39.26493 -7.74255 29495 ft 486 kts 25°
2026-05-04 07:57 39.29411 -7.72021 29760 ft 489 kts 25°
2026-05-04 07:57 39.32350 -7.69771 30034 ft 491 kts 25°
2026-05-04 07:58 39.35233 -7.67381 30325 ft 496 kts 32°
2026-05-04 07:58 39.37838 -7.64416 30675 ft 501 kts 42°
2026-05-04 07:58 39.40109 -7.60986 31034 ft 504 kts 51°
2026-05-04 07:58 39.41975 -7.57133 31317 ft 507 kts 58°
2026-05-04 07:59 39.43665 -7.53131 31589 ft 508 kts 59°
2026-05-04 07:59 39.45326 -7.49086 31865 ft 509 kts 60°
2026-05-04 07:59 39.46984 -7.45054 32189 ft 507 kts 60°
2026-05-04 07:59 39.48657 -7.41037 32524 ft 506 kts 59°
2026-05-04 08:00 39.50323 -7.37087 32812 ft 506 kts 59°
2026-05-04 08:00 39.52019 -7.33096 33076 ft 506 kts 59°
2026-05-04 08:00 39.53720 -7.29106 33370 ft 505 kts 59°
2026-05-04 08:02 39.65335 -7.00993 34068 ft 503 kts 65°
2026-05-04 08:02 39.68109 -6.92668 34057 ft 502 kts 66°
2026-05-04 08:03 39.70856 -6.84348 34057 ft 501 kts 66°
2026-05-04 08:03 39.73664 -6.75997 34066 ft 508 kts 65°
2026-05-04 08:04 39.76517 -6.67562 34057 ft 511 kts 66°
2026-05-04 08:04 39.79376 -6.59082 34054 ft 512 kts 66°
2026-05-04 08:05 39.82207 -6.50644 34044 ft 513 kts 66°
2026-05-04 08:05 39.85056 -6.42132 34042 ft 513 kts 66°
2026-05-04 08:06 39.87896 -6.33623 34041 ft 512 kts 66°
2026-05-04 08:06 39.90726 -6.25119 34040 ft 512 kts 66°
2026-05-04 08:08 40.01491 -5.92529 34034 ft 510 kts 67°
2026-05-04 08:11 40.13991 -5.54199 34028 ft 510 kts 67°
2026-05-04 08:11 40.18119 -5.41426 34029 ft 511 kts 68°
2026-05-04 08:12 40.20876 -5.32859 34028 ft 511 kts 68°
2026-05-04 08:12 40.23636 -5.24257 34010 ft 512 kts 68°
2026-05-04 08:13 40.26391 -5.15646 33999 ft 513 kts 68°
2026-05-04 08:13 40.29139 -5.07028 34009 ft 513 kts 68°
2026-05-04 08:14 40.31884 -4.98393 34018 ft 513 kts 68°
2026-05-04 08:16 40.42784 -4.63836 34004 ft 513 kts 69°
2026-05-04 08:16 40.45503 -4.55171 33996 ft 513 kts 69°
2026-05-04 08:17 40.48220 -4.46490 33998 ft 513 kts 69°
2026-05-04 08:17 40.50926 -4.37815 33999 ft 513 kts 69°
2026-05-04 08:19 40.61697 -4.02986 33990 ft 514 kts 70°
2026-05-04 08:20 40.64372 -3.94264 33998 ft 514 kts 70°
2026-05-04 08:20 40.67044 -3.85527 33980 ft 514 kts 70°
2026-05-04 08:21 40.69693 -3.76837 33992 ft 514 kts 70°
2026-05-04 08:21 40.72351 -3.68086 33985 ft 514 kts 70°
2026-05-04 08:22 40.75005 -3.59319 33976 ft 514 kts 70°
2026-05-04 08:24 40.85518 -3.24222 33975 ft 513 kts 73°
2026-05-04 08:24 40.87430 -3.15232 33987 ft 510 kts 79°
2026-05-04 08:25 40.89107 -3.06126 33978 ft 511 kts 80°
2026-05-04 08:25 40.90831 -2.97002 33973 ft 511 kts 79°
2026-05-04 08:27 40.97863 -2.60623 33963 ft 511 kts 79°
2026-05-04 08:28 40.99623 -2.51490 33967 ft 512 kts 79°
2026-05-04 08:28 41.01390 -2.42345 33963 ft 512 kts 79°
2026-05-04 08:29 41.03141 -2.33195 33977 ft 513 kts 79°
2026-05-04 08:31 41.10017 -1.96481 33963 ft 513 kts 79°
2026-05-04 08:33 41.16803 -1.59750 33964 ft 513 kts 80°
2026-05-04 08:35 41.23448 -1.22978 33964 ft 513 kts 80°
2026-05-04 08:35 41.25093 -1.13744 33962 ft 513 kts 80°
2026-05-04 08:37 41.30786 -0.81424 33973 ft 513 kts 80°
2026-05-04 08:38 41.32386 -0.72237 33977 ft 513 kts 80°
2026-05-04 08:38 41.33991 -0.62977 33977 ft 513 kts 80°
2026-05-04 08:40 41.35238 -0.30381 33982 ft 504 kts 96°
2026-05-04 08:40 41.35186 -0.25716 33981 ft 504 kts 96°
2026-05-04 08:41 41.35103 -0.16379 33983 ft 504 kts 96°
2026-05-04 08:41 41.35021 -0.07041 33980 ft 504 kts 96°
2026-05-04 08:42 41.34927 0.02293 33986 ft 504 kts 96°
2026-05-04 08:42 41.34823 0.11624 33990 ft 504 kts 96°
2026-05-04 08:43 41.34713 0.20941 33983 ft 504 kts 96°
2026-05-04 08:43 41.34591 0.30258 33983 ft 502 kts 96°
2026-05-04 08:44 41.34458 0.39550 33992 ft 501 kts 96°
2026-05-04 08:46 41.33859 0.76508 33979 ft 499 kts 96°
2026-05-04 08:46 41.33690 0.85734 33970 ft 498 kts 97°
2026-05-04 08:47 41.33513 0.94941 33968 ft 498 kts 97°
2026-05-04 08:47 41.33330 1.04137 33957 ft 496 kts 97°
2026-05-04 08:48 41.33113 1.13309 33976 ft 494 kts 97°
2026-05-04 08:48 41.32941 1.22445 33979 ft 494 kts 97°
2026-05-04 08:49 41.32760 1.31576 33983 ft 494 kts 97°
2026-05-04 08:50 41.32032 1.63507 33982 ft 495 kts 97°
2026-05-04 08:51 41.31804 1.72649 33977 ft 495 kts 97°
2026-05-04 08:51 41.31549 1.81808 33971 ft 495 kts 98°
2026-05-04 08:52 41.31286 1.90966 33973 ft 496 kts 98°
2026-05-04 08:52 41.31019 2.00146 33966 ft 497 kts 97°
2026-05-04 08:54 41.26832 2.34357 33968 ft 488 kts 109°
2026-05-04 08:55 41.25342 2.43179 33970 ft 490 kts 109°
2026-05-04 08:55 41.23873 2.51973 33977 ft 491 kts 109°
2026-05-04 09:01 41.07793 3.45550 33982 ft 495 kts 109°
2026-05-04 09:01 41.06222 3.54440 33982 ft 495 kts 109°
2026-05-04 09:02 41.04636 3.63308 33986 ft 494 kts 109°
2026-05-04 09:02 41.03053 3.72095 33985 ft 494 kts 109°
2026-05-04 09:03 41.01456 3.80944 33989 ft 494 kts 109°
2026-05-04 09:03 40.99856 3.89775 33990 ft 494 kts 109°
2026-05-04 09:04 40.98251 3.98610 33994 ft 494 kts 109°
2026-05-04 09:04 40.96638 4.07451 33994 ft 494 kts 109°
2026-05-04 09:05 40.95017 4.16293 33997 ft 495 kts 109°
2026-05-04 09:05 40.93387 4.25146 33991 ft 496 kts 109°
2026-05-04 09:06 40.91749 4.34002 34001 ft 496 kts 109°
2026-05-04 09:08 40.85318 4.69561 34003 ft 503 kts 103°
2026-05-04 09:08 40.84451 4.78754 34009 ft 505 kts 101°
2026-05-04 09:09 40.83693 4.87973 34009 ft 505 kts 101°
2026-05-04 09:09 40.82878 4.97189 34007 ft 505 kts 101°
2026-05-04 09:10 40.82011 5.06419 34028 ft 508 kts 102°
2026-05-04 09:10 40.81125 5.15669 34023 ft 507 kts 101°
2026-05-04 09:11 40.80236 5.24909 34016 ft 507 kts 102°
2026-05-04 09:11 40.79342 5.34135 34016 ft 506 kts 102°
2026-05-04 09:12 40.78443 5.43347 34015 ft 506 kts 102°
2026-05-04 09:14 40.74775 5.80146 34036 ft 507 kts 102°
2026-05-04 09:14 40.73836 5.89386 34028 ft 508 kts 102°
2026-05-04 09:15 40.72890 5.98615 34033 ft 508 kts 102°
2026-05-04 09:15 40.71929 6.07853 34035 ft 508 kts 102°
2026-05-04 09:17 40.67512 6.49443 34040 ft 512 kts 101°
2026-05-04 09:18 40.66507 6.58716 34049 ft 512 kts 101°
2026-05-04 09:18 40.65495 6.67989 34055 ft 511 kts 101°
2026-05-04 09:19 40.64474 6.77264 34059 ft 511 kts 101°
2026-05-04 09:19 40.63446 6.86528 34068 ft 511 kts 101°
2026-05-04 09:20 40.62412 6.95787 34051 ft 511 kts 101°
2026-05-04 09:20 40.61376 7.04985 34066 ft 511 kts 101°
2026-05-04 09:21 40.60326 7.14246 34062 ft 511 kts 101°
2026-05-04 09:21 40.59270 7.23492 34068 ft 511 kts 101°
2026-05-04 09:22 40.58207 7.32737 34070 ft 511 kts 101°
2026-05-04 09:22 40.57137 7.41984 34070 ft 511 kts 101°
2026-05-04 09:23 40.56545 7.51317 34063 ft 514 kts 86°
2026-05-04 09:23 40.57346 7.60590 34075 ft 514 kts 82°
2026-05-04 09:25 40.60632 7.97977 34060 ft 514 kts 83°
2026-05-04 09:26 40.61406 8.07325 34056 ft 513 kts 83°
2026-05-04 09:26 40.62168 8.16613 34056 ft 513 kts 83°
2026-05-04 09:27 40.62396 8.25964 34048 ft 512 kts 97°
2026-05-04 09:27 40.60918 8.35076 34054 ft 508 kts 107°
2026-05-04 09:28 40.59097 8.44069 34051 ft 508 kts 107°
2026-05-04 09:28 40.57306 8.53062 34061 ft 508 kts 107°
2026-05-04 09:29 40.55553 8.62073 34070 ft 508 kts 106°
2026-05-04 09:29 40.53820 8.71021 34081 ft 508 kts 106°
2026-05-04 09:30 40.52070 8.80019 34081 ft 508 kts 106°
2026-05-04 09:30 40.50306 8.89028 34096 ft 508 kts 107°
2026-05-04 09:31 40.48535 8.98032 34090 ft 509 kts 107°
2026-05-04 09:31 40.46755 9.07034 34090 ft 509 kts 106°
2026-05-04 09:32 40.44967 9.16040 34111 ft 509 kts 106°
2026-05-04 09:34 40.37740 9.52043 34117 ft 511 kts 106°
2026-05-04 09:34 40.35911 9.61059 34118 ft 512 kts 106°
2026-05-04 09:35 40.34073 9.70074 34108 ft 512 kts 106°
2026-05-04 09:35 40.32229 9.79080 34120 ft 511 kts 106°
2026-05-04 09:37 40.24812 10.14926 34133 ft 509 kts 106°
2026-05-04 09:38 40.22943 10.23867 34131 ft 509 kts 106°
2026-05-04 09:38 40.21069 10.32790 34136 ft 508 kts 106°
2026-05-04 09:39 40.19189 10.41706 34132 ft 508 kts 106°
2026-05-04 09:39 40.17306 10.50606 34135 ft 508 kts 106°
2026-05-04 09:40 40.15615 10.59572 34145 ft 507 kts 101°
2026-05-04 09:40 40.14301 10.68635 34146 ft 507 kts 100°
2026-05-04 09:42 40.09229 11.03319 34147 ft 507 kts 101°
2026-05-04 09:43 40.07860 11.12350 34153 ft 507 kts 101°
2026-05-04 09:43 40.06483 11.21396 34152 ft 507 kts 101°
2026-05-04 09:44 40.05111 11.30363 34155 ft 507 kts 101°
2026-05-04 09:46 39.99522 11.66408 34163 ft 506 kts 101°
2026-05-04 09:46 39.98110 11.75390 34166 ft 505 kts 101°
2026-05-04 09:47 39.96694 11.84351 34167 ft 505 kts 101°
2026-05-04 09:49 39.90983 12.20029 34177 ft 502 kts 101°
2026-05-04 09:51 39.85908 12.51119 34188 ft 500 kts 101°
2026-05-04 09:51 39.84447 12.59970 34187 ft 500 kts 101°
2026-05-04 09:52 39.82991 12.68748 34194 ft 499 kts 101°
2026-05-04 09:52 39.81520 12.77570 34193 ft 499 kts 101°
2026-05-04 09:53 39.80045 12.86374 34194 ft 498 kts 101°
2026-05-04 09:53 39.78565 12.95165 34193 ft 497 kts 101°
2026-05-04 09:54 39.77079 13.03944 34192 ft 497 kts 101°
2026-05-04 09:54 39.75588 13.12712 34197 ft 496 kts 101°
2026-05-04 09:55 39.74092 13.21466 34195 ft 496 kts 101°
2026-05-04 09:55 39.72591 13.30213 34200 ft 495 kts 101°
2026-05-04 09:56 39.71095 13.38885 34199 ft 495 kts 101°
2026-05-04 09:56 39.69576 13.47646 34197 ft 494 kts 101°
2026-05-04 09:57 39.68072 13.56282 34199 ft 493 kts 101°
2026-05-04 09:57 39.66554 13.64958 34199 ft 493 kts 101°
2026-05-04 09:58 39.65031 13.73621 34200 ft 492 kts 101°
2026-05-04 09:58 39.63502 13.82274 34197 ft 492 kts 101°
2026-05-04 10:00 39.57344 14.16743 34198 ft 489 kts 101°
2026-05-04 10:04 39.46419 14.76390 34210 ft 484 kts 102°
2026-05-04 10:04 39.44841 14.84860 34216 ft 483 kts 102°
2026-05-04 10:05 39.43261 14.93306 34209 ft 482 kts 102°
2026-05-04 10:05 39.41678 15.01726 34204 ft 482 kts 102°
2026-05-04 10:06 39.40090 15.10136 34207 ft 481 kts 102°
2026-05-04 10:06 39.38510 15.18468 34207 ft 480 kts 102°
2026-05-04 10:08 39.32915 15.47697 34204 ft 478 kts 102°
2026-05-04 10:08 39.31306 15.56024 34206 ft 478 kts 102°
2026-05-04 10:09 39.29690 15.64352 34208 ft 478 kts 102°
2026-05-04 10:09 39.28078 15.72631 34208 ft 478 kts 103°
2026-05-04 10:10 39.26450 15.80949 34208 ft 478 kts 103°
2026-05-04 10:10 39.24817 15.89268 34200 ft 478 kts 103°
2026-05-04 10:11 39.23174 15.97599 34204 ft 479 kts 103°
2026-05-04 10:11 39.21524 16.05928 34199 ft 480 kts 103°
2026-05-04 10:12 39.19865 16.14272 34209 ft 481 kts 102°
2026-05-04 10:12 39.18196 16.22640 34210 ft 482 kts 102°
2026-05-04 10:13 39.16516 16.31027 34217 ft 484 kts 102°
2026-05-04 10:13 39.14766 16.39418 34199 ft 486 kts 104°
2026-05-04 10:14 39.12928 16.47801 34191 ft 486 kts 104°
2026-05-04 10:16 39.05619 16.81136 34182 ft 483 kts 103°
2026-05-04 10:16 39.03784 16.89451 34181 ft 483 kts 103°
2026-05-04 10:17 39.01940 16.97775 34193 ft 484 kts 103°
2026-05-04 10:19 38.94145 17.31044 34186 ft 488 kts 104°
2026-05-04 10:19 38.92142 17.39325 34189 ft 489 kts 104°
2026-05-04 10:20 38.90124 17.47661 34187 ft 489 kts 104°
2026-05-04 10:20 38.88094 17.56019 34180 ft 490 kts 104°
2026-05-04 10:21 38.86054 17.64386 34188 ft 491 kts 104°
2026-05-04 10:21 38.84006 17.72759 34187 ft 492 kts 104°
2026-05-04 10:22 38.80919 17.85321 34185 ft 493 kts 104°
2026-05-04 10:23 38.78853 17.93700 34183 ft 493 kts 104°
2026-05-04 10:25 38.70534 18.27129 34184 ft 493 kts 104°
2026-05-04 10:25 38.68408 18.35489 34183 ft 493 kts 104°
2026-05-04 10:26 38.66280 18.43831 34193 ft 493 kts 104°
2026-05-04 10:26 38.64148 18.52177 34195 ft 493 kts 104°
2026-05-04 10:27 38.62012 18.60515 34189 ft 493 kts 104°
2026-05-04 10:27 38.59871 18.68842 34191 ft 493 kts 104°
2026-05-04 10:28 38.57725 18.77162 34189 ft 493 kts 104°
2026-05-04 10:28 38.55574 18.85476 34191 ft 493 kts 104°
2026-05-04 10:29 38.53431 18.93734 34193 ft 492 kts 104°
2026-05-04 10:29 38.51233 19.02016 34187 ft 493 kts 106°
2026-05-04 10:30 38.48709 19.10179 34187 ft 495 kts 108°
2026-05-04 10:30 38.46072 19.18291 34191 ft 495 kts 108°
2026-05-04 10:31 38.43454 19.26410 34189 ft 495 kts 108°
2026-05-04 10:32 38.34805 19.53512 34191 ft 496 kts 107°
2026-05-04 10:33 38.32193 19.61650 34199 ft 497 kts 107°
2026-05-04 10:33 38.29143 19.71125 34189 ft 498 kts 107°
2026-05-04 10:34 38.26506 19.79287 34197 ft 498 kts 107°
2026-05-04 10:34 38.24310 19.86068 34190 ft 499 kts 107°
2026-05-04 10:35 38.21658 19.94237 34196 ft 500 kts 107°
2026-05-04 10:35 38.18996 20.02414 34197 ft 501 kts 107°
2026-05-04 10:36 38.16325 20.10591 34200 ft 501 kts 107°
2026-05-04 10:36 38.13646 20.18774 34187 ft 502 kts 107°
2026-05-04 10:37 38.10956 20.26964 34198 ft 502 kts 107°
2026-05-04 10:37 38.08255 20.35165 34192 ft 503 kts 107°
2026-05-04 10:39 37.98765 20.63798 34194 ft 505 kts 107°
2026-05-04 10:40 37.96030 20.71996 34193 ft 505 kts 108°
2026-05-04 10:40 37.93286 20.80199 34201 ft 506 kts 108°
2026-05-04 10:41 37.90535 20.88401 34192 ft 506 kts 108°
2026-05-04 10:41 37.87777 20.96598 34194 ft 506 kts 108°
2026-05-04 10:42 37.85010 21.04802 34200 ft 507 kts 108°
2026-05-04 10:42 37.82253 21.12952 34197 ft 507 kts 108°
2026-05-04 10:43 37.79474 21.21144 34191 ft 507 kts 108°
2026-05-04 10:45 37.68287 21.53893 34189 ft 507 kts 108°
2026-05-04 10:45 37.65481 21.62049 34198 ft 507 kts 108°
2026-05-04 10:46 37.62671 21.70193 34200 ft 506 kts 108°
2026-05-04 10:46 37.59852 21.78344 34194 ft 507 kts 108°
2026-05-04 10:47 37.57048 21.86430 34190 ft 507 kts 108°
2026-05-04 10:47 37.54213 21.94584 34182 ft 507 kts 109°
2026-05-04 10:49 37.42856 22.27027 34175 ft 506 kts 109°
2026-05-04 10:50 37.40023 22.35075 34176 ft 506 kts 109°
2026-05-04 10:52 37.29684 22.67898 34159 ft 505 kts 107°
2026-05-04 10:52 37.27073 22.76094 34175 ft 505 kts 107°
2026-05-04 10:54 37.16579 23.08803 34179 ft 505 kts 108°
2026-05-04 10:56 37.06049 23.41266 34186 ft 501 kts 109°
2026-05-04 10:57 37.03416 23.49329 34185 ft 500 kts 109°
2026-05-04 10:57 37.00779 23.57381 34191 ft 499 kts 109°
2026-05-04 10:58 36.98157 23.65364 34186 ft 499 kts 109°
2026-05-04 10:58 36.95519 23.73376 34196 ft 498 kts 109°
2026-05-04 10:59 36.92873 23.81388 34188 ft 498 kts 110°
2026-05-04 10:59 36.90226 23.89382 34199 ft 497 kts 110°
2026-05-04 11:00 36.87578 23.97359 34193 ft 497 kts 110°
2026-05-04 11:02 36.76965 24.29112 34189 ft 495 kts 111°
2026-05-04 11:05 36.56790 24.88552 34173 ft 500 kts 112°
2026-05-04 11:06 36.54059 24.96508 34160 ft 500 kts 112°
2026-05-04 11:06 36.51344 25.04396 34166 ft 499 kts 112°
2026-05-04 11:10 36.32170 25.59534 34150 ft 495 kts 114°
2026-05-04 11:12 36.21151 25.90774 34120 ft 497 kts 114°
2026-05-04 11:12 36.18369 25.98611 34128 ft 497 kts 114°
2026-05-04 11:13 36.15572 26.06471 34117 ft 499 kts 114°
2026-05-04 11:13 36.12766 26.14336 34118 ft 500 kts 115°
2026-05-04 11:14 36.09970 26.22155 34107 ft 501 kts 115°